Hourly Data Report for December 04, 2010

IQALUIT CLIMATE
NUNAVUT

63°44'50.000" N
68°32'40.000" W
33.50 m
2402592
71321
XFB

Download Data

Hourly Data (December 2010)
Hourly Data Report for December 4, 2010
TIME
LST
Temp Definition
°C
Dew Point Definition
°C
Rel Hum Definition
%
Precip. Amount Definition
mm

Wind Dir Definition
10's deg

Wind Spd Definition
km/h
Visibility Definition
km
Stn Press Definition
kPa
Hmdx Definition


Wind Chill Definition


Weather Definition


00:00 -0.2 -3.4 79   21 11   101.54   -4 LegendNANA
01:00 -0.5 -3.7 79   18 15   101.51   -5 LegendNANA
02:00 -0.2 -2.7 83   20 11   101.55   -4 LegendNANA
03:00 -0.6 -3.6 80   19 13   101.55   -5 LegendNANA
04:00 -0.7 -3.8 79   19 11   101.58   -4 LegendNANA
05:00 -0.7 -3.4 82   15 6   101.59   -3 LegendNANA
06:00 -0.6 -3.4 81   19 7   101.64   -3 LegendNANA
07:00 -1.0 -3.5 83   18 9   101.63   -4 LegendNANA
08:00 -0.6 -3.4 81   19 11   101.61   -4 LegendNANA
09:00 -0.5 -2.7 85   18 9   101.65   -4 LegendNANA
10:00 -0.2 -3.1 81   14 7   101.71   -3 LegendNANA
11:00 -1.2 -2.8 89   35 7   101.72   -4 LegendNANA
12:00 -1.6 -3.2 89   33 6   101.74   -4 LegendNANA
13:00 -1.4 -3.5 86   3 9   101.76   -5 LegendNANA
14:00 -1.6 -3.4 87   6 11   101.76   -5 LegendNANA
15:00 -2.4 -3.6 91   4 7   101.82   -5 LegendNANA
16:00 -2.7 -4.3 89   36 11   101.84   -7 LegendNANA
17:00 -2.6 -4.3 88   36 7   101.86   -5 LegendNANA
18:00 -2.4 -4.2 87   36 13   101.86   -7 LegendNANA
19:00 -1.9 -4.1 85   1 13   101.88   -6 LegendNANA
20:00 -2.4 -4.5 85   36 15   101.87   -7 LegendNANA
21:00 -2.5 -4.7 85   1 15   101.85   -7 LegendNANA
22:00 -2.7 -4.5 87   33 6   101.87   -5 LegendNANA
23:00 -3.2 -4.5 91   32 13   101.90   -8 LegendNANA

Notes on Data Quality.

Legend

  • E = Estimated
  • M = Missing
  • NA = Not Available*
  • [empty] = Indicates an unobserved value
Date modified: